Other Public Products
Issued by NWS Grand Forks, ND

Home | Current Version | Previous Version | Text Only | Print | Product List | Glossary Off
Versions: 1 2 3 4 5 6 7 8 9 10 11 12 13 14 15 16 17 18 19 20 21 22 23 24 25 26 27 28 29 30 31 32 33 34 35 36 37 38 39 40 41 42 43 44 45 46 47 48 49 50

531
FPUS83 KFGF 091110
OPUFGF
PRAIRIE TO PINES WEATHER ROUNDUP
NATIONAL WEATHER SERVICE EASTERN NORTH DAKOTA/GRAND FORKS ND
500 AM CST TUE FEB 09 2016

 **SATELLITE DATA USED TO AUGMENT SKY COVER AT AUTOMATED STATIONS**
 *****  WEATHER ACROSS EASTERN NORTH DAKOTA  *****

CITY           SKY/WX    TMP DP  RH WIND       PRES   REMARKS
GRAND FORKS    CLOUDY    11   3  70 N15       30.25S WCI  -5
GRAND FORKS AF CLOUDY    10   4  74 N8        30.25S WCI  -2
GRAND CITY NWS NOT AVBL
BUXTON           N/A      9   5  82 NW12        N/A  WCI  -5
DEVILS LAKE    CLOUDY    14   9  80 CALM      30.23F
FARGO          PTCLDY     4  -2  76 NW10      30.25S WCI -11
WAHPETON ARPT  SUNNY      5   0  78 NW8       30.25S WCI  -8
$$

 *****  WEATHER ACROSS CENTRAL AND WESTERN NORTH DAKOTA  *****

CITY           SKY/WX    TMP DP  RH WIND       PRES   REMARKS
JAMESTOWN      CLOUDY    13   8  81 NW7       30.23F WCI   3
BISMARCK       CLOUDY    25  12  58 W5        30.26F WCI  19
MINOT          CLOUDY    26   9  48 SW10      30.21F WCI  16
MINOT AFB      CLOUDY    23  14  70 CALM      30.20F
GARRISON         N/A     21  15  78 SW3       30.22F
WILLISTON      CLOUDY    27  22  81 S3        30.18F
DICKINSON      CLOUDY    24  17  74 SE6       30.18S WCI  17
HETTINGER      CLOUDY    28  16  60 SW6       30.20F WCI  22
$$

 *****  OTHER OBSERVATIONS NORTHEAST NORTH DAKOTA  *****

CITY           SKY/WX    TMP DP  RH WIND       PRES   REMARKS
WALHALLA       FAIR      10   7  85 N10       30.27S WCI  -3
LANGDON        CLOUDY    10   7  85 NW5       30.21S WCI   2
CAVALIER       CLOUDY    10   5  79 N10       30.27S WCI  -3
GRAFTON        CLOUDY     9   5  85 N12       30.29S WCI  -6
CANDO          NOT AVBL
FORT TOTTEN      N/A     13   8  79 CALM      29.95
ROLLA          CLOUDY    16   9  73 NW5       30.22R WCI   9
RUGBY          FAIR      18  10  73 CALM      30.22F
 ***** THE ABOVE OBSERVATIONS ARE NON NWS ARE NOT QUALITY
        CONTROLLED AND MAY MIS-REPORT RAIN FOR SNOW...
$$

 *****  OTHER OBSERVATIONS SOUTHEAST NORTH DAKOTA *****

CITY           SKY/WX    TMP DP  RH WIND       PRES   REMARKS
COOPERSTOWN    NOT AVBL
VALLEY CITY    CLOUDY    10   7  85 NW13      30.25F WCI  -5
OAKES          CLOUDY     9   5  85 NW6       30.24S WCI  -1
GWINNER        CLOUDY    10   5  79 NW8       30.23F WCI  -1
SHEYENNE NWR     N/A      6   0  76 NW6       29.95S WCI  -5
BUFFALO          N/A     10   4  77 NW10        N/A  WCI  -4
WYNDMERE         N/A      3   0  85 NW6         N/A  WCI  -8
 ***** THE ABOVE OBSERVATIONS ARE NON NWS ARE NOT QUALITY
       CONTROLLED AND MAY MIS-REPORT RAIN FOR SNOW...
$$

  *****  WEATHER ACROSS NORTHERN MINNESOTA  *****

CITY           SKY/WX    TMP DP  RH WIND       PRES   REMARKS
FLAG ISLAND    CLOUDY    -6  -9  84 NW7       30.17S WCI -20
WARROAD        PTCLDY    -6  -9  84 W5        30.19S WCI -17
ROSEAU         CLOUDY    -6  -9  84 W5        30.21R WCI -17
HALLOCK        CLOUDY     3   0  85 NW8       30.25S WCI -10
THF RVR FALLS  NOT AVBL
HALSTAD        NOT AVBL
FOSSTON        CLEAR     -6  -8  92 NW5       30.18S WCI -17
BAUDETTE       PTCLDY    -4  -9  79 NW9       30.15R HAZE    WCI -20
WASKISH        CLOUDY    -6  -9  84 W6        30.14S WCI -18
CROOKSTON      CLOUDY     5   1  85 N9        30.26R WCI  -9
$$
  *****  WEATHER ACROSS CENTRAL AND WEST MINNESOTA  *****

CITY           SKY/WX    TMP DP  RH WIND       PRES   REMARKS
BEMIDJI        CLOUDY    -3  -6  85 NW9       30.13S WCI -19
PARK RAPIDS    MOCLDY     3  -3  76 N13       30.11R WCI -14
WADENA         CLEAR      0  -4  85 N13       30.12S WCI -18
DETROIT LAKES  CLOUDY     1  -4  78 N9        30.17S WCI -14
MOORHEAD       CLEAR      3   0  85 NW7       30.25R WCI  -9
FERGUS FALLS   CLEAR      1  -2  85 N13       30.24S WCI -16
ELBOW LAKE     FAIR       3  -2  80 NW15      30.18F WCI -16
MORRIS MN      CLEAR      3   0  85 NW18G25   30.17S WCI -17
STAPLES        CLEAR      0  -4  85 NW10      30.11R WCI -17
WHEATON        CLEAR      7   1  78 NW12      30.25F WCI  -9
$$
  *****  WEATHER ELSEWHERE ACROSS MINNESOTA  *****

CITY           SKY/WX    TMP DP  RH WIND       PRES   REMARKS
DULUTH         CLOUDY     1  -6  72 NW22G29   29.95R WCI -21
INTRNTL FALLS  CLOUDY    -4  -8  83 NW8       30.10S WCI -19
ELY            CLOUDY    -2  -6  84 N7        29.98R WCI -16
CLOQUET        CLOUDY     0  -6  78 NW13G20   30.00R WCI -18
BRAINERD       CLEAR      2  -4  76 NW12      30.08R WCI -15
HIBBING        MIX PCPN  -1  -6  79 NW15G24   30.02R WCI -21
ALEXANDRIA     CLEAR      2  -4  76 N15       30.12S WCI -17
SAINT CLOUD    CLEAR      4  -3  73 NW15G22   30.08R WCI -14
MINNEAPOLIS    CLOUDY     7  -1  70 NW20G25   30.05R WCI -13
$$

  *****  WEATHER ACROSS SOUTH DAKOTA  *****

CITY           SKY/WX    TMP DP  RH WIND       PRES   REMARKS
SIOUX FALLS    CLEAR      8   0  69 N21       30.17R WCI -12
BROOKINGS      CLEAR      5  -1  76 N16G24    30.16R WCI -14
WATERTOWN      CLEAR      4  -2  76 N16       30.18R WCI -15
HURON          PTCLDY    13   7  77 N13       30.27R WCI  -2
SISSETON         N/A      4   0  83 N14       30.23S WCI -14
ABERDEEN       CLOUDY    12   6  77 N7        30.27S WCI   1
MITCHELL       PTCLDY    15   9  76 N13       30.28R WCI   1
PIERRE         CLOUDY    23  13  65 N14       30.27R WCI  11
MOBRIDGE       CLOUDY    23  11  60 N7        30.23F WCI  15
RAPID CITY     PTCLDY    23  14  68 N6        30.22S WCI  16
$$

  *****  SOME WEATHER IN NEARBY STATES *****

CITY           SKY/WX    TMP DP  RH WIND       PRES   REMARKS
GLASGOW MT     CLOUDY    27  22  81 W7        30.24F WCI  19
GREAT FALLS MT CLEAR     41  29  62 SW15      30.31F
CHEYENNE WY    CLEAR     36  18  48 NW18G25   30.27F
SCOTTSBLUFF NE CLEAR     31  24  75 NW14      30.24R WCI  21
OMAHA NE       PTCLDY    15   8  73 N14       30.15R WCI   0
DES MOINES IA  LGT SNOW  13   4  67 N23G32    30.05R WCI  -6
DAVENPORT IA   FLURRIES  13   6  74 NW18      29.88R WCI  -4
CHICAGO IL     LGT SNOW  17  13  84 NW14      29.75R FOG     WCI   3
EAU CLAIRE WI  CLOUDY     6  -3  66 NW14      29.96R WCI -11
LA CROSSE WI   CLOUDY     9   0  67 NW15      29.96R WCI  -8
$$

  *****  SOME NATIONAL WEATHER *****

CITY           SKY/WX    TMP DP  RH WIND       PRES   REMARKS
LA GUARDIA NY  CLOUDY    27  22  81 NE10      29.66S WCI  17
RALEIGH NC     CLOUDY    36  33  89 W5        29.63R
ATLANTA GA     CLOUDY    34  22  61 W14       29.81R WCI  25
NEW ORLEANS LA PTCLDY    42  19  39 W10       30.14R
OKLAHOMA CITY  PTCLDY    32  15  49 NW7       30.21F
ALBUQUERQUE NM CLOUDY    32  21  64 CALM      30.39F
SALT LAKE CITY PTCLDY    26  22  84 SE8       30.58F FOG     WCI  18
LOS ANGELES CA CLEAR     61  29  29 E3        30.12S
BOISE ID       PTCLDY    29  25  85 SE3       30.61F
SEATTLE WA     CLEAR     44  41  89 N9        30.22F
$$

*** WEATHER ACROSS MANITOBA...SASKATCHEWAN AND ONTARIO ***
                ***ONTARIO***

CITY           SKY/WX    TMP DP  RH WIND       PRES   REMARKS
GERALDTON      LGT SNOW  -4  -9  77 NW13      29.86R DRFTSNOWWCI -23
THUNDER BAY    FLURRIES   3  -4  72 NW8G17    29.95R WCI -10
SIOUX LOOKOUT  FLURRIES  -2  -8  78 N6        30.05S WCI -14
TORONTO        LGT SNOW  27  25  93 NE7       29.50R WCI  19
BIG TROUT LK   FLURRIES -15 -20  76 NW9       30.14R WCI -33
PICKLE LAKE    CRYSTALS  -6 -15  65 N8G17     30.03  WCI -21
DRYDEN         CLOUDY    -4  -9  77 N9G18     30.07R WCI -20
KENORA         CLEAR     -6  -9  84 N10       30.14R WCI -23
$$
                *** MANITOBA***

CITY           SKY/WX    TMP DP  RH WIND       PRES   REMARKS
BRANDON        FLURRIES  14   9  79 NW5       30.25R WCI   6
DAUPHIN        FLURRIES  12   7  79 N7        30.30R WCI   2
ISLAND LAKE    NOT AVBL
PILOT MOUND      N/A     10   7  85 NW6         N/A  WCI   1
THE PAS        CLEAR     -9 -13  84 NE5       30.39R WCI -21
THOMPSON       CLEAR    -27 -33  75 W2        30.41R
WINNIPEG       CLOUDY     3  -2  78 N9        30.30R WCI -11
LYNN LAKE      CLEAR    -29 -35  75 VRB2      30.37F
CHURCHILL      CRYSTALS -24 -29  76 NW14      30.43R DRFTSNOWWCI -49
GILLAM         CLEAR    -27 -33  75 NW9       30.37R WCI -49
$$
                ***SASKATCHEWAN***

CITY           SKY/WX    TMP DP  RH WIND       PRES   REMARKS
ESTEVAN        MOCLDY    25  19  80 VRB2      30.19R
KINDERSLEY     CLOUDY    30  27  86 S5        30.19F
LLOYDMINSTER   CLOUDY    32  30  93 S3        30.15F FOG
PRINCE ALBERT  CLOUDY    19  14  79 E10       30.25R WCI   8
REGINA         MOCLDY    21  19  93 NW3       30.20R
YORKTON        CLOUDY    19  18  93 N6        30.21S WCC1F1C2F2C3F3C4F4C5F5C6F6C7F7C8F8C9F9CaFaCbFbCcFcCdFdCe!



USA.gov is the U.S. government's official web portal to all federal, state and local government web resources and services.